{"data":{"norad_id":48562,"epoch":"2026-05-25T02:42:39.026880Z","epoch_age_seconds":65538,"freshness":"FRESH","line1":"1 48562U 21041K   26145.11295170  .00054674  00000+0  11269-2 0  9993","line2":"2 48562  53.1558 125.8332 0007152  37.9919 322.1592 15.45374384277061","mean_motion":15.45374384,"eccentricity":0.0007152,"inclination_deg":53.1558,"raan_deg":125.8332,"arg_perigee_deg":37.9919,"mean_anomaly_deg":322.1592,"bstar":0.0011269,"rev_number":27706,"period_min":93.181303825727,"perigee_km":425.40886236548,"apogee_km":435.14761952612,"semimajor_km":6808.4152409458,"source":"CELESTRAK","updated_at":"2026-05-25T13:38:16.725433Z"}}